{"data":{"norad_id":68642,"intl_designator":"2026-075G","name":"QIANFAN-115","alt_names":[],"object_type":"PAYLOAD","status":"ACTIVE","operator":null,"country":"PRC","launch_date":"2026-04-07","launch_site_code":"WSC","launch_vehicle":null,"mission":null,"orbit_class":"UNKNOWN","rcs_meters":null,"size_class":null,"mass_kg":null,"dimensions":null,"purposes":[],"wikipedia_slug":null,"has_3d_model":false,"image_url":null,"decayed_at":null,"tle_current":{"epoch":"2026-09-20T03:10:07.208832Z","epoch_age_seconds":95071,"freshness":"FRESH","line1":"1 68642U 26075G   26263.13202788  .00000052  00000+0  62503-4 0  9992","line2":"2 68642  88.9863 311.3334 0002080  94.0129 266.1260 13.51024607 22616","mean_motion":13.51024607,"eccentricity":0.000208,"inclination_deg":88.9863,"raan_deg":311.3334,"arg_perigee_deg":94.0129,"mean_anomaly_deg":266.126,"bstar":6.2503e-5,"rev_number":2261,"period_min":106.58577146108,"perigee_km":1066.9422653569,"apogee_km":1070.0400626731,"semimajor_km":7446.628164015,"source":"CELESTRAK","updated_at":"2026-09-20T09:00:24.369246Z"}}}